| time (UTC) | temp C | wind direction | speed KPH | gust KPH | rain 1hr cm | rain 24hr cm | rain mn cm | humidity % | barometer mb |
| 20260505175013 | 13 | 234 | 6.4 | 12.9 | 0.00 | 0.20 | 0.20 | 85 | 1006.2 |
| 20260505174013 | 13 | 231 | 4.8 | 16.1 | 0.03 | 0.20 | 0.20 | 85 | 1006.1 |
| 20260505173014 | 13 | 238 | 3.2 | 9.7 | 0.05 | 0.20 | 0.20 | 85 | 1006.0 |
| 20260505172013 | 13 | 251 | 3.2 | 11.3 | 0.05 | 0.20 | 0.20 | 84 | 1005.9 |
| 20260505171013 | 13 | 266 | 6.4 | 17.7 | 0.10 | 0.20 | 0.20 | 83 | 1005.7 |
| 20260505170013 | 13 | 268 | 4.8 | 19.3 | 0.15 | 0.20 | 0.20 | 83 | 1005.7 |
| 20260505165013 | 13 | 227 | 3.2 | 8.0 | 0.15 | 0.20 | 0.20 | 81 | 1005.8 |
| 20260505164013 | 13 | 225 | 4.8 | 14.5 | 0.15 | 0.18 | 0.18 | 79 | 1006.0 |
| 20260505163013 | 13 | 258 | 8.0 | 20.9 | 0.15 | 0.15 | 0.15 | 77 | 1006.2 |
| 20260505162012 | 14 | 221 | 8.0 | 24.1 | 0.15 | 0.15 | 0.15 | 76 | 1006.3 |
| 20260505161013 | 14 | 239 | 8.0 | 20.9 | 0.10 | 0.10 | 0.10 | 74 | 1006.3 |
| 20260505153012 | 16 | 210 | 16.1 | 37.0 | 0.03 | 0.03 | 0.03 | 65 | 1005.9 |
| 20260505152012 | 19 | 200 | 14.5 | 40.2 | 0.00 | 0.00 | 0.00 | 59 | 1005.6 |
| 20260505151013 | 20 | 211 | 3.2 | 6.4 | 0.00 | 0.00 | 0.00 | 51 | 1004.7 |
| 20260505125012 | 24 | 145 | 3.2 | 6.4 | 0.00 | 0.00 | 0.00 | 40 | 1005.2 |
| 20260505124012 | 23 | 223 | 4.8 | 11.3 | 0.00 | 0.00 | 0.00 | 40 | 1005.4 |
| 20260505123012 | 23 | 278 | 4.8 | 12.9 | 0.00 | 0.00 | 0.00 | 46 | 1005.4 |
| 20260505122013 | 25 | 244 | 3.2 | 11.3 | 0.00 | 0.00 | 0.00 | 38 | 1005.6 |
| 20260505121012 | 24 | 215 | 3.2 | 8.0 | 0.00 | 0.00 | 0.00 | 39 | 1005.6 |
| 20260505120012 | 24 | 252 | 4.8 | 14.5 | 0.00 | 0.00 | 0.00 | 41 | 1005.7 |
| 20260505115012 | 24 | 294 | 3.2 | 12.9 | 0.00 | 0.00 | 0.00 | 44 | 1005.9 |
| 20260505114011 | 24 | 327 | 6.4 | 16.1 | 0.00 | 0.00 | 0.00 | 44 | 1005.9 |
| 20260505113012 | 23 | 242 | 4.8 | 12.9 | 0.00 | 0.00 | 0.00 | 45 | 1006.0 |
| 20260505112012 | 23 | 288 | 3.2 | 14.5 | 0.00 | 0.00 | 0.00 | 45 | 1006.0 |
| 20260505111012 | 23 | 92 | 3.2 | 9.7 | 0.00 | 0.00 | 0.00 | 45 | 1006.1 |
| 20260505102011 | 22 | 224 | 4.8 | 11.3 | 0.00 | 0.00 | 0.00 | 49 | 1006.7 |
| 20260505101011 | 22 | 279 | 3.2 | 11.3 | 0.00 | 0.00 | 0.00 | 49 | 1006.7 |
| 20260505100012 | 22 | 344 | 3.2 | 12.9 | 0.00 | 0.00 | 0.00 | 50 | 1006.8 |
| 20260505095011 | 21 | 247 | 3.2 | 9.7 | 0.00 | 0.00 | 0.00 | 50 | 1006.9 |
| 20260505094012 | 21 | 247 | 3.2 | 9.7 | 0.00 | 0.00 | 0.00 | 50 | 1006.9 |
| 20260505093012 | 22 | 279 | 4.8 | 9.7 | 0.00 | 0.00 | 0.00 | 50 | 1007.2 |
| 20260505092011 | 21 | 34 | 3.2 | 9.7 | 0.00 | 0.00 | 0.00 | 49 | 1007.2 |
| 20260505091011 | 21 | 344 | 4.8 | 12.9 | 0.00 | 0.00 | 0.00 | 51 | 1007.3 |
| 20260505090012 | 21 | 350 | 4.8 | 14.5 | 0.00 | 0.00 | 0.00 | 51 | 1007.5 |
| 20260505085011 | 21 | 360 | 3.2 | 12.9 | 0.00 | 0.00 | 0.00 | 50 | 1007.6 |
| 20260505084011 | 21 | 16 | 4.8 | 12.9 | 0.00 | 0.00 | 0.00 | 46 | 1007.7 |
| 20260505083012 | 21 | 24 | 4.8 | 11.3 | 0.00 | 0.00 | 0.00 | 52 | 1007.7 |
| 20260505082012 | 20 | 5 | 3.2 | 8.0 | 0.00 | 0.00 | 0.00 | 52 | 1007.8 |
| 20260505081010 | 19 | 336 | 3.2 | 6.4 | 0.00 | 0.00 | 0.00 | 55 | 1007.9 |
| 20260505080010 | 19 | 336 | 3.2 | 6.4 | 0.00 | 0.00 | 0.00 | 55 | 1007.9 |
| 20260505075011 | 19 | 325 | 1.6 | 4.8 | 0.00 | 0.00 | 0.00 | 55 | 1008.1 |
| 20260505074011 | 19 | 325 | 0.0 | 6.4 | 0.00 | 0.00 | 0.00 | 54 | 1008.2 |
| 20260505073011 | 19 | 323 | 3.2 | 8.0 | 0.00 | 0.00 | 0.00 | 52 | 1008.2 |
| 20260505072010 | 18 | 316 | 1.6 | 8.0 | 0.00 | 0.00 | 0.00 | 60 | 1008.4 |
| 20260505071011 | 18 | 316 | 1.6 | 8.0 | 0.00 | 0.00 | 0.00 | 60 | 1008.4 |
| 20260505070010 | 17 | 317 | 1.6 | 4.8 | 0.00 | 0.00 | 0.00 | 58 | 1008.6 |
| 20260505065010 | 16 | 321 | 1.6 | 6.4 | 0.00 | 0.00 | 0.00 | 59 | 1008.5 |
| 20260505064010 | 16 | 325 | 1.6 | 6.4 | 0.00 | 0.00 | 0.00 | 61 | 1008.6 |
| 20260505063010 | 16 | 325 | 3.2 | 6.4 | 0.00 | 0.00 | 0.00 | 63 | 1008.6 |
| 20260505062012 | 16 | 325 | 3.2 | 6.4 | 0.00 | 0.00 | 0.00 | 63 | 1008.6 |